Location: Lucerne Valley
(34.4439°N, 116.9669°E)
Time: 02:59:07
(UTC-08:00)

Vanguard 3 - All Passes

Search period start: 22 February 2018 00:00
Search period end: 04 March 2018 00:00
Orbit: 508 x 3264 km, 33.3° (Epoch: 21 February)

Date Brightness Start Highest point End Pass type
(mag) Time Alt. Az. Time Alt. Az. Time Alt. Az.
22 Feb - 01:41:24 10° W 01:45:14 72° S 01:49:00 10° E daylight
22 Feb - 03:53:03 10° W 03:56:24 29° SSW 04:00:44 10° SE visible
22 Feb - 20:01:59 10° SSW 20:08:08 19° SSE 20:12:35 10° ESE daylight
22 Feb - 22:13:54 10° SW 22:20:31 44° SSE 22:24:45 10° E daylight
23 Feb - 00:27:20 10° W 00:31:58 77° S 00:35:38 10° E daylight
23 Feb - 02:39:35 10° W 02:43:07 45° SSW 02:47:03 10° ESE visible
23 Feb - 04:52:14 10° SW 04:54:30 14° SSW 04:57:11 10° S visible
23 Feb - 18:49:11 10° S 18:53:35 13° SSE 18:57:14 10° SE daylight
23 Feb - 20:58:54 10° SW 21:06:42 33° SSE 21:11:37 10° E daylight
23 Feb - 23:12:38 10° WSW 23:18:36 68° S 23:22:35 10° E daylight
24 Feb - 01:25:52 10° W 01:29:54 67° S 01:33:33 10° ESE daylight
24 Feb - 03:38:03 10° WSW 03:40:58 22° SSW 03:44:27 10° SSE visible
24 Feb - 19:44:04 10° SSW 19:52:29 25° SSE 19:58:03 10° ESE daylight
24 Feb - 21:57:21 10° WSW 22:05:01 54° SSE 22:09:39 10° E daylight
25 Feb - 00:11:31 10° W 00:16:37 79° S 00:20:22 10° E daylight
25 Feb - 02:24:15 10° W 02:27:43 36° SSW 02:31:18 10° SE visible
25 Feb - 18:29:56 10° S 18:37:50 19° SSE 18:43:37 10° ESE daylight
25 Feb - 20:41:49 10° SW 20:51:07 42° SSE 20:56:37 10° E daylight
25 Feb - 22:56:27 10° WSW 23:03:10 75° S 23:07:23 10° E daylight
26 Feb - 01:10:14 10° W 01:14:33 60° SSW 01:18:08 10° ESE daylight
26 Feb - 03:23:11 10° WSW 03:25:30 16° SSW 03:28:01 10° SSE visible
26 Feb - 17:17:54 10° S 17:22:45 12° SSE 17:26:55 10° SE daylight
26 Feb - 19:26:21 10° SW 19:36:46 33° SSE 19:43:14 10° E daylight
26 Feb - 21:40:46 10° WSW 21:49:29 63° SSE 21:54:30 10° E daylight
26 Feb - 23:55:36 10° W 00:01:14 78° S 00:05:07 10° E daylight
27 Feb - 02:08:51 10° W 02:12:17 29° SSW 02:15:34 10° SE daylight
27 Feb - 18:11:25 10° SSW 18:21:58 25° SSE 18:29:09 10° ESE daylight
27 Feb - 20:24:43 10° SW 20:35:26 51° SSE 20:41:30 10° E daylight
27 Feb - 22:40:11 10° W 22:47:42 80° S 22:52:12 10° E daylight
28 Feb - 00:54:30 10° W 00:59:09 53° SSW 01:02:45 10° ESE daylight
28 Feb - 03:08:46 10° SW 03:09:58 11° SSW 03:11:11 10° S visible
28 Feb - 16:57:47 10° S 17:06:45 17° SSE 17:13:42 10° ESE daylight
28 Feb - 19:08:43 10° SW 19:20:57 40° SSE 19:28:12 10° E daylight
28 Feb - 21:24:06 10° WSW 21:33:52 71° S 21:39:20 10° E daylight
28 Feb - 23:39:33 10° W 23:45:49 76° S 23:49:53 10° ESE daylight
01 Mar - 01:53:26 10° W 01:56:48 24° SSW 01:59:49 10° SSE daylight
01 Mar - 15:48:58 10° SSE 15:51:09 10° SE 15:53:14 10° SE daylight
01 Mar - 17:53:12 10° SSW 18:05:59 31° SSE 18:14:19 10° E daylight
01 Mar - 20:07:37 10° WSW 20:19:40 59° SSE 20:26:21 10° E daylight
01 Mar - 22:23:49 10° W 22:32:11 82° S 22:37:02 10° E daylight
02 Mar - 00:38:39 10° W 00:43:42 47° SSW 00:47:22 10° SE daylight
02 Mar - 16:38:46 10° SSW 16:50:36 23° SSE 16:59:20 10° ESE daylight
02 Mar - 18:51:09 10° SW 19:05:00 48° SSE 19:13:03 10° E daylight
02 Mar - 21:07:22 10° WSW 21:18:13 77° S 21:24:08 10° E daylight
02 Mar - 23:23:23 10° W 23:30:21 72° SSW 23:34:39 10° ESE daylight
03 Mar - 01:37:58 10° W 01:41:14 20° SSW 01:44:02 10° SSE daylight
03 Mar - 15:26:38 10° S 15:34:54 15° SE 15:41:59 10° ESE daylight
03 Mar - 17:35:11 10° SSW 17:49:51 38° SSE 17:59:14 10° E daylight
03 Mar - 19:50:28 10° WSW 20:03:49 67° SSE 20:11:06 10° E daylight
03 Mar - 22:07:19 10° W 22:16:37 83° S 22:21:51 10° E daylight
